Location: Bu�n Treun
(12.1333°N, 108.3167°E)
Time: 00:12:24
(UTC+00:00)

Cosmos 2278 - Pass Details

Date: 13 July 2020
Orbit: 838 x 854 km, 71.1° (Epoch: 03 August)

Event Time Altitude Azimuth Distance (km) Brightness Sun altitude
Rises 21:05:56 0° 327° (NNW) 3,412 6.8 -19.3°
Reaches altitude 10° 21:08:38 10° 317° (NW) 2,474 6.0 -18.7°
Maximum altitude 21:13:33 31° 257° (WSW) 1,458 4.4 -17.6°
Enters shadow 21:14:47 28° 233° (SW) 1,540 4.5 -17.4°
